Lihue, HI

5:42 PM HST on January 16, 2018 (GMT -1000)
Lihue

Weather History for PHLI - March, 2015

Change the Weather History Date:

Monday, March 9, 2015

  Actual Average Record
Temperature  
Mean Temperature 68 °F 72 °F  
Max Temperature 77 °F 78 °F 83 °F (1984)
Min Temperature 59 °F 66 °F 57 °F (1953)
Degree Days  
Heating Degree Days 0 0  
Month to date heating degree days 0 0  
Since 1 July heating degree days 0 0  
Cooling Degree Days 3 7  
Month to date cooling degree days 66 63  
Year to date cooling degree days 522 458  
Growing Degree Days 18 (Base 50)    
Moisture  
Dew Point 52 °F    
Average Humidity 62    
Maximum Humidity 84    
Minimum Humidity 40    
Precipitation  
Precipitation 0.00 in 0.15 in 3.63 in (2012)
Month to date precipitation 0.43 1.32  
Year to date precipitation 2.34 8.23  
Snow  
Snow 0.00 in - - ()
Month to date snowfall 0.0  
Since 1 July snowfall 0.0  
Snow Depth 0.00 in    
Sea Level Pressure  
Sea Level Pressure 29.98 in    
Wind  
Wind Speed 10 mph (NNW)    
Max Wind Speed 23 mph    
Max Gust Speed 29 mph    
Visibility 10 miles    
Events      
T = Trace of Precipitation, MM = Missing Value Source: NWS Daily Summary

Daily Weather History Graph

Daily Weather History Graph

Search for Another Location

Airport or City:

Trip Planner

Search our weather history database for the weather conditions in past years. The results will help you decide how hot, cold, wet, or windy it might be!

Date:

Astronomy

Mar. 09, 2015 Rise Set
Actual Time 6:51 AM HST 6:44 PM HST
Civil Twilight 6:29 AM HST 7:06 PM HST
Nautical Twilight 6:03 AM HST 7:32 PM HST
Astronomical Twilight 5:37 AM HST 7:58 PM HST
Moon 10:19 PM HST (3/9) 9:16 AM HST (3/9)
Length of Visible Light 12h 37m
Length of Day
11h 53m
Waning Gibbous, 85% of the Moon is Illuminated
Mar 9
Waning Gibbous
Mar 13
Last Quarter
Mar 19
New
Mar 26
First Quarter
Apr 4
Full

Hourly Weather History & Observations

Time (HST) Temp. Dew Point Humidity Pressure Visibility Wind Dir Wind Speed Gust Speed Precip Events Conditions
12:53 AM 63.0 °F 54.0 °F 72% 29.98 in 10.0 mi NNW 6.9 mph - N/A   Clear
1:53 AM 64.0 °F 55.0 °F 73% 29.96 in 10.0 mi NW 8.1 mph - N/A   Overcast
2:53 AM 63.0 °F 54.0 °F 72% 29.95 in 10.0 mi NNW 8.1 mph - N/A   Clear
3:53 AM 62.1 °F 53.1 °F 72% 29.95 in 10.0 mi NW 6.9 mph - N/A   Clear
4:53 AM 59.0 °F 52.0 °F 78% 29.95 in 10.0 mi West 4.6 mph - N/A   Clear
5:53 AM 64.0 °F 55.9 °F 75% 29.96 in 10.0 mi NNW 5.8 mph - N/A   Overcast
6:53 AM 59.0 °F 53.1 °F 81% 29.97 in 10.0 mi WNW 5.8 mph - N/A   Clear
7:53 AM 61.0 °F 55.0 °F 81% 30.00 in 10.0 mi West 5.8 mph - N/A   Clear
8:53 AM 71.1 °F 52.0 °F 51% 30.03 in 10.0 mi North 9.2 mph - N/A   Clear
9:53 AM 73.0 °F 51.1 °F 46% 30.03 in 10.0 mi NNE 11.5 mph - N/A   Clear
10:53 AM 75.0 °F 50.0 °F 41% 30.02 in 10.0 mi NNE 13.8 mph - N/A   Clear
11:53 AM 77.0 °F 51.1 °F 40% 30.00 in 10.0 mi NNE 19.6 mph - N/A   Clear
12:53 PM 75.9 °F 51.1 °F 42% 29.97 in 10.0 mi NNE 18.4 mph - N/A   Clear
1:53 PM 75.9 °F 52.0 °F 43% 29.95 in 10.0 mi NNE 18.4 mph 27.6 mph N/A   Clear
2:53 PM 73.9 °F 51.1 °F 45% 29.94 in 10.0 mi NNE 19.6 mph 26.5 mph N/A   Mostly Cloudy
3:53 PM 73.0 °F 51.1 °F 46% 29.94 in 10.0 mi North 18.4 mph - N/A   Overcast
4:53 PM 72.0 °F 51.1 °F 48% 29.94 in 10.0 mi North 17.3 mph - N/A   Mostly Cloudy
5:53 PM 70.0 °F 50.0 °F 49% 29.96 in 10.0 mi North 16.1 mph - N/A   Partly Cloudy
6:53 PM 66.9 °F 51.1 °F 57% 29.98 in 10.0 mi North 12.7 mph - N/A   Mostly Cloudy
7:53 PM 66.0 °F 51.1 °F 59% 29.99 in 10.0 mi North 10.4 mph - N/A   Overcast
8:53 PM 64.9 °F 50.0 °F 58% 30.01 in 10.0 mi North 9.2 mph - N/A   Partly Cloudy
9:53 PM 64.0 °F 48.9 °F 58% 30.01 in 10.0 mi NNW 3.5 mph - N/A   Clear
10:53 PM 64.0 °F 48.9 °F 58% 30.01 in 10.0 mi NW 6.9 mph - N/A   Scattered Clouds
11:53 PM 60.1 °F 48.9 °F 67% 30.00 in 10.0 mi West 6.9 mph - N/A   Clear